sat.trackr.live / text

‹ back to catalog

STARLINK-35094

NORAD 65395 · 2025-191S

PAYLOAD ACTIVE UNKNOWN

§ Identity

Operator
Country
US
Launch date
2025-08-30
Launch site
AFWTR
Launch vehicle
Mass (kg)
RCS (m²)

Purposes: comms

External: N2YO · Heavens-Above · Gunter

§ Orbital elements

Epoch: 2026-09-20T08:53:30.600384Z

Period
93.91 min
Inclination
97.2842°
Eccentricity
0.0000651
Mean motion
15.33459783 rev/d
Perigee alt
465.1 km
Apogee alt
465.9 km
Semi-major
6,843.6 km
B*
3.7115e-4
RAAN
129.4677°
Arg perigee
167.3111°
Mean anomaly
192.8149°
Rev number
5,963

§ Raw data

STARLINK-350941 65395U 25191S   26263.37049306  .00011931  00000+0  37115-3 0  99912 65395  97.2842 129.4677 0000651 167.3111 192.8149 15.33459783 59635

JSON: /api/v1/satellites/65395 · /tle

For live sub-satellite position, see the globe view (requires WebGL).

§ Visibility from observer

Set your observer location to see the next 7 days of passes ≥ 10°. The values pass through the URL so the page stays shareable.

No JS? Fill the form by hand. The geolocation button needs JavaScript.